Location: New Town
(33.2710°N, 90.7534°W)
Time: 01:55:22
(UTC+00:00)

ISS - Pass Details

Date: 25 April 2021
Orbit: 417 x 422 km, 51.6° (Epoch: 18 May)

Event Time Altitude Azimuth Distance (km) Brightness Sun altitude
Exits shadow 09:10:31 17° 111° (ESE) 1,144 -1.3 -25.1°
Drops below altitude 10° 09:12:11 10° 83° (E) 1,498 -0.2 -24.8°
Sets 09:14:44 0° 63° (ENE) 2,366 1.4 -24.4°
